Current Weather Conditions: station 62131

sailwx.info

Wind from 190 at 8 knots

Air temperature 12.6° C
Dewpoint 11.4° C

Last reported at 2019-Jun-18 06:00 UTC.
Time now 2019-Jun-18 07:24 UTC

Location: N 53°54' E 001°12'.
View on Google Maps.

See reports from other nearby stations

  
Tides and Currents Weather Stations Pressure Air Temp Water Temp Dewpoint Dewpoint Depression Visibility Wind Speed Wind Dir Waves Ship Positions
date/time (UTC)wind fromknots sea level pressurealtimeterstation pressurevisibilityair tempwater tempwave heightnotes
2019-Jun-18 06:00 190 8 12.6
2019-Jun-18 05:00 210 6 12.9
2019-Jun-18 04:00 230 6 12.7
2019-Jun-18 03:00 200 7 12.6
2019-Jun-18 02:00 220 8 13.1
2019-Jun-18 01:00 210 9 13.6
2019-Jun-18 00:00 220 6 13.4
2019-Jun-17 23:00 210 13 14.6
2019-Jun-17 22:00 180 13 14.9
2019-Jun-17 21:00 180 15 14.6
2019-Jun-17 20:00 170 13 14.1
2019-Jun-17 19:00 160 13 14.3
2019-Jun-17 18:00 180 13 15.2
2019-Jun-17 17:00 170 15 14.9
2019-Jun-17 16:00 170 17 14.2
2019-Jun-17 15:00 170 17 14.2
2019-Jun-17 14:00 180 19 14.2
2019-Jun-17 13:00 180 17 13.9
2019-Jun-17 12:00 180 19 13.9
2019-Jun-17 11:00 180 18 13.5
2019-Jun-17 10:00 180 20 13.4
2019-Jun-17 09:00 180 20 12.7
2019-Jun-17 08:00 180 22 12.6
2019-Jun-17 07:00 180 21 12.4
2019-Jun-17 06:00 180 19 12.6
2019-Jun-17 05:00 180 20 12.7
2019-Jun-17 04:00 180 20 13.0
2019-Jun-17 03:00 180 20 13.0
2019-Jun-17 02:00 190 21 13.3
2019-Jun-17 01:00 190 20 13.6
2019-Jun-17 00:00 180 20 13.8
2019-Jun-16 23:00 190 20 14.4
2019-Jun-16 22:00 190 20 13.9
2019-Jun-16 21:00 200 18 14.4
2019-Jun-16 20:00 180 20 14.3
2019-Jun-16 19:00 160 14 13.9
2019-Jun-16 18:00 160 17 14.0
2019-Jun-16 17:00 170 19 13.6
2019-Jun-16 16:00 160 15 13.2
2019-Jun-16 15:00 150 11 13.1
2019-Jun-16 14:00 150 14 13.0
2019-Jun-16 13:00 140 8 12.6
2019-Jun-16 12:00 160 18 12.4
2019-Jun-16 11:00 170 17 11.8
2019-Jun-16 10:00 180 15 11.6
2019-Jun-16 09:00 180 13 11.6
2019-Jun-16 08:00 180 13 11.6
2019-Jun-16 07:00 190 13 11.4